Temp
-7 -7 -8 -8 -8 -7 -7 -7 -6 -6 -5 -5 -4 -3 -3 -2 -1 -0 1 3 5 6 14 15 15 14 15 15 17 16 16 16 16 15 15 15 14 14 14 13 13 13 14
-8 -8 -8 -8 -8 -7 -7 -7 -7 -6 -6 -5 -5 -4 -3 -2 -1 1 2 4 5 6 14 14 14 13 13 14 15 16 17 16 17 15 15 15 14 14 14 13 13 12 13
-8 -8 -8 -8 -8 -8 -7 -7 -7 -6 -5 -4 -4 -3 -2 -2 -1 2 3 5 5 7 14 14 14 13 13 13 14 16 16 17 17 15 15 14 14 13 13 12 12 12 12
-8 -8 -8 -8 -8 -8 -7 -7 -7 -6 -4 -3 -2 -2 -1 -0 2 3 4 5 6 14 14 14 14 13 13 14 14 15 16 16 16 14 14 14 13 13 13 13 12 13 12
-8 -8 -8 -8 -8 -8 -7 -7 -6 -5 -4 -3 -2 -1 1 3 4 5 5 7 13 14 13 14 14 13 13 14 15 15 16 16 16 14 13 13 13 13 13 13 13 12 12
-8 -8 -8 -8 -9 -8 -8 -7 -6 -5 -5 -4 -4 -2 -1 1 2 4 6 12 13 13 13 13 14 13 13 14 14 15 16 15 15 15 14 13 13 12 12 13 13 12 12
-8 -8 -8 -8 -9 -8 -8 -7 -6 -6 -5 -5 -4 -4 -2 0 2 5 9 12 12 12 13 13 13 12 12 12 13 15 16 15 15 15 14 14 13 13 12 12 12 12 12
-8 -8 -8 -8 -8 -8 -8 -7 -6 -6 -5 -5 -5 -4 -3 -1 1 4 8 11 12 12 12 12 12 11 11 11 11 13 14 15 15 15 15 14 15 13 14 14 13 13 13
-7 -8 -8 -8 -8 -8 -8 -7 -6 -6 -6 -5 -5 -4 -3 -2 -0 0 4 5 7 8 10 11 12 12 11 11 11 11 11 13 14 15 15 15 15 15 13 13 12 12 12
-6 -7 -7 -7 -8 -8 -8 -7 -6 -6 -6 -5 -5 -4 -4 -3 -1 -1 0 -0 2 2 4 5 7 10 10 11 11 11 11 11 12 13 13 14 14 15 14 13 13 12 12
-7 -6 -7 -7 -7 -7 -7 -7 -6 -5 -5 -5 -5 -5 -5 -4 -3 -2 -2 -2 -2 -1 -1 0 1 4 7 9 11 11 11 11 11 11 12 13 13 14 14 13 13 13 12
-6 -6 -7 -6 -7 -7 -6 -6 -5 -5 -5 -5 -5 -5 -5 -5 -4 -4 -3 -3 -3 -3 -3 -2 -1 0 4 6 8 9 10 10 10 10 10 11 12 12 12 13 12 13 12
-6 -6 -7 -6 -6 -6 -6 -5 -5 -5 -5 -5 -5 -5 -5 -5 -5 -5 -5 -4 -4 -5 -4 -3 -3 -2 2 3 5 7 8 9 10 10 10 10 11 11 11 11 12 12 12
-6 -7 -7 -7 -6 -6 -6 -6 -6 -6 -6 -6 -6 -6 -6 -6 -6 -5 -6 -5 -6 -5 -4 -5 -5 -4 -4 -2 1 1 2 4 5 8 10 10 10 11 11 11 10 10 11
-7 -7 -7 -7 -7 -7 -6 -7 -7 -6 -6 -6 -6 -6 -6 -6 -6 -5 -5 -6 -6 -6 -6 -7 -7 -7 -6 -6 -5 -4 -2 -1 0 0 2 5 8 10 10 11 10 10 10
-7 -7 -8 -7 -7 -7 -7 -6 -7 -7 -7 -7 -6 -7 -7 -7 -7 -6 -6 -6 -7 -7 -8 -8 -7 -8 -8 -8 -8 -7 -7 -6 -5 -4 -2 -1 1 2 4 9 10 10 10
-7 -8 -8 -8 -8 -7 -7 -7 -7 -7 -7 -7 -8 -7 -7 -7 -8 -7 -7 -8 -8 -9 -9 -9 -9 -8 -8 -8 -8 -8 -8 -7 -6 -6 -5 -4 -3 -1 0 1 3 8 10
-9 -9 -8 -8 -8 -8 -8 -8 -8 -7 -7 -8 -8 -8 -8 -8 -8 -8 -8 -9 -9 -10 -10 -10 -10 -9 -9 -9 -9 -8 -8 -7 -7 -7 -7 -6 -6 -5 -3 -2 -1 0 1
-10 -9 -10 -10 -9 -9 -9 -8 -8 -8 -8 -8 -8 -8 -9 -8 -9 -9 -9 -10 -10 -10 -10 -11 -11 -10 -10 -10 -9 -9 -9 -8 -8 -8 -8 -7 -7 -6 -6 -5 -4 -2 -1
-10 -10 -10 -10 -10 -9 -9 -9 -9 -9 -9 -9 -9 -9 -10 -10 -10 -10 -10 -11 -11 -11 -11 -11 -11 -11 -11 -10 -10 -10 -9 -9 -9 -9 -9 -8 -7 -7 -6 -6 -5 -5 -3
-11 -11 -9 -10 -10 -9 -9 -9 -10 -9 -10 -10 -10 -10 -9 -10 -10 -11 -11 -11 -11 -12 -12 -12 -11 -11 -12 -11 -11 -10 -10 -9 -10 -10 -9 -9 -8 -8 -7 -7 -6 -6 -5
-11 -11 -11 -10 -10 -10 -10 -10 -10 -10 -10 -10 -10 -10 -10 -11 -11 -11 -11 -12 -12 -12 -12 -12 -12 -12 -12 -12 -12 -11 -11 -10 -10 -10 -10 -10 -9 -8 -8 -8 -7 -7 -6
-12 -11 -11 -11 -11 -10 -10 -11 -10 -10 -10 -11 -11 -11 -11 -11 -11 -12 -12 -12 -12 -12 -13 -13 -13 -13 -12 -12 -11 -11 -11 -10 -10 -10 -11 -10 -10 -9 -9 -9 -8 -8 -7
-12 -11 -11 -11 -11 -11 -10 -11 -11 -11 -11 -11 -11 -11 -11 -12 -12 -12 -12 -12 -12 -12 -12 -13 -13 -13 -12 -12 -12 -11 -10 -10 -10 -10 -11 -11 -11 -10 -9 -9 -9 -8 -8
-12 -12 -12 -11 -11 -11 -11 -11 -11 -11 -11 -12 -12 -12 -12 -12 -12 -12 -12 -13 -13 -12 -12 -12 -12 -12 -12 -12 -12 -12 -11 -10 -10 -10 -10 -11 -11 -10 -10 -9 -9 -9 -8
-12 -12 -12 -12 -12 -12 -12 -12 -12 -12 -12 -13 -13 -13 -13 -13 -13 -13 -13 -13 -13 -13 -13 -12 -12 -12 -12 -12 -12 -12 -12 -11 -10 -10 -11 -11 -11 -10 -10 -10 -10 -9 -9
Height
767 763 758 753 748 742 735 727 719 712 708 703 699 696 693 692 692 688 673 671 678 674 665 674 687 698 708 719 729 738 743 750 757 769 775 779 786 791 797 803 806 810 815
763 758 754 749 742 735 726 718 710 702 697 692 687 683 681 678 676 680 677 678 665 672 655 662 677 690 701 712 721 728 736 742 750 759 767 773 779 785 790 796 801 804 808
759 755 750 743 737 728 719 709 701 693 686 679 673 670 668 665 662 656 646 647 647 644 640 654 666 681 693 704 712 722 731 737 744 750 758 766 773 778 785 790 796 799 803
756 752 745 740 732 723 713 703 695 685 677 669 662 656 653 652 649 646 645 642 637 629 640 650 661 671 682 692 702 713 723 731 738 744 750 758 765 770 777 782 789 793 798
754 748 743 737 730 720 710 699 690 682 674 663 654 647 638 633 634 636 640 623 605 614 631 644 654 665 673 683 695 705 714 723 729 736 744 751 759 764 770 775 782 787 792
751 745 741 735 728 718 708 698 691 682 671 662 652 641 628 621 615 617 605 601 608 616 628 638 649 659 668 677 688 695 703 711 718 726 735 741 748 755 761 766 773 779 786
748 743 739 734 728 718 710 702 691 679 668 659 648 642 642 638 632 617 604 595 608 618 624 632 643 650 660 670 682 688 698 704 708 712 723 731 740 745 753 759 764 769 772
746 742 738 733 727 719 709 700 691 681 670 662 658 651 640 628 624 610 597 602 602 615 625 632 640 647 654 665 674 681 690 697 704 708 714 723 728 735 740 745 751 757 765
745 741 736 732 726 720 713 704 695 687 680 670 662 657 646 639 624 601 593 601 606 615 625 634 643 649 655 661 668 676 685 692 698 703 711 718 723 728 734 742 748 755 760
744 740 736 731 726 721 714 706 699 692 686 680 668 649 644 640 637 613 612 614 617 626 633 635 642 646 652 658 664 671 678 684 691 698 706 712 719 725 728 732 737 743 750
742 740 737 732 727 722 716 709 704 697 687 682 676 675 667 653 644 632 637 634 635 638 641 648 647 650 650 655 661 666 670 678 684 692 698 705 712 716 721 725 729 733 741
741 740 738 734 729 726 721 715 709 702 693 686 683 679 674 677 661 651 643 643 644 651 652 656 657 654 648 653 657 662 667 673 678 684 690 696 701 707 712 717 722 727 732
740 739 738 735 732 728 726 722 717 712 708 703 695 685 684 680 672 661 656 655 656 663 659 658 659 656 649 657 658 662 666 668 674 678 683 688 692 697 703 710 714 721 727
739 738 737 736 734 731 725 724 722 717 712 707 705 699 694 685 678 671 674 669 669 664 660 666 668 660 663 663 663 665 665 668 668 674 681 683 684 690 696 702 707 713 717
739 738 737 735 734 733 731 729 726 723 720 717 713 711 707 702 701 694 687 681 679 680 680 678 668 672 661 672 672 675 671 671 672 679 681 678 679 685 689 694 697 703 707
739 739 738 737 735 733 732 731 732 730 727 724 721 716 712 709 704 698 695 696 697 694 685 682 687 682 681 679 685 687 682 683 681 683 681 682 682 684 686 690 691 693 698
738 739 739 738 737 736 735 734 733 732 731 729 726 723 721 716 711 709 709 706 702 695 697 698 699 696 697 688 698 697 692 686 687 688 683 686 687 688 690 691 687 688 688
737 737 738 739 739 738 738 738 736 735 733 731 729 728 726 723 720 715 712 711 709 710 711 711 709 709 706 700 706 706 700 699 695 694 695 694 692 692 691 692 691 690 689
736 737 738 739 740 740 740 740 739 738 737 736 734 732 731 729 727 724 722 719 719 718 718 718 717 714 714 709 713 714 709 707 705 701 699 694 693 691 693 694 694 693 690
737 738 739 740 740 741 742 743 744 744 743 742 740 739 737 734 733 733 732 731 729 727 725 726 724 719 718 718 721 721 716 708 709 704 701 702 702 698 699 696 692 696 692
737 739 740 741 742 743 744 745 746 747 747 747 747 746 744 742 740 738 738 738 738 736 735 732 729 727 728 730 728 724 720 714 710 709 706 706 707 702 702 700 695 693 692
738 740 741 742 743 745 746 747 748 748 749 749 749 748 746 745 743 742 740 739 738 738 737 736 736 737 733 729 725 722 720 714 715 716 714 710 710 709 706 700 694 692 691
739 741 742 743 744 746 747 749 749 750 750 750 750 749 748 747 746 745 743 743 742 741 739 736 736 734 729 728 726 724 721 719 721 718 716 715 712 709 706 699 697 694 693
740 741 743 744 745 747 748 749 750 751 751 751 750 750 749 748 748 747 745 744 741 739 737 735 733 732 731 730 730 727 725 725 724 719 716 712 711 709 706 703 700 697 694
742 743 744 746 747 748 749 750 751 751 752 751 751 751 750 749 748 746 745 744 742 741 739 737 735 733 731 730 729 727 726 726 722 720 719 719 715 711 708 707 701 695 692
744 745 746 747 748 749 750 751 751 751 751 751 751 750 750 749 748 746 745 743 742 741 740 739 739 737 735 733 732 729 729 726 726 726 722 718 714 713 709 704 700 695 692
Wind_Speed
20 24 27 29 29 29 30 32 32 33 34 36 38 38 39 38 38 37 38 34 42 48 46 50 44 40 37 34 33 34 31 30 11 26 28 26 32 29 27 30 29 32 32
21 24 28 28 28 29 30 31 32 32 33 36 38 38 39 39 39 40 39 42 35 48 48 44 45 40 37 36 35 32 31 30 22 22 28 27 31 32 28 33 29 31 33
19 24 27 26 28 30 31 33 31 31 32 34 35 37 37 37 40 37 35 39 44 52 45 44 45 42 40 37 37 33 33 29 26 21 23 27 27 29 29 27 29 27 30
19 23 25 25 30 32 32 31 29 30 30 27 27 32 37 42 40 32 29 45 59 44 43 46 45 46 44 43 38 37 35 30 27 26 24 27 29 31 31 27 27 28 27
17 21 24 26 29 32 31 31 32 29 26 20 14 12 9 8 9 20 36 46 39 34 38 43 44 48 47 46 40 37 37 33 30 24 22 25 25 25 28 29 25 26 27
16 19 22 24 27 30 31 31 32 26 25 23 22 22 23 17 16 24 32 25 22 30 32 39 42 49 51 50 45 43 42 40 33 28 23 22 27 30 30 28 28 24 14
14 18 21 24 25 27 30 27 30 28 30 31 33 31 24 20 12 12 14 26 25 24 25 29 32 40 46 50 49 46 45 44 43 42 31 29 28 31 31 30 29 29 28
12 17 19 24 26 25 28 27 30 31 32 32 32 31 28 31 23 12 18 20 24 25 26 25 21 29 41 43 42 39 38 44 43 40 36 35 35 38 42 41 40 38 28
9 15 18 21 24 25 26 27 27 29 28 29 31 31 30 32 37 32 25 25 27 24 17 16 18 26 34 44 36 34 32 33 42 42 36 33 33 36 39 31 26 23 17
9 12 16 19 21 22 25 27 25 25 25 27 29 37 37 34 40 44 31 26 28 22 21 19 14 14 25 46 41 33 32 30 30 35 35 34 32 33 37 37 34 27 23
7 9 12 16 18 20 23 25 25 23 27 27 27 25 30 37 39 44 37 33 27 22 22 19 19 14 12 30 43 34 36 35 32 31 36 36 35 34 36 39 33 31 27
6 8 9 12 16 16 19 23 22 24 25 29 26 26 31 26 37 39 41 37 29 23 23 21 18 16 16 10 20 15 28 34 29 29 27 31 31 29 29 37 37 32 34
5 7 8 9 11 15 15 18 21 22 21 20 24 26 28 31 33 39 38 36 33 25 24 22 19 21 23 18 9 12 12 17 22 23 22 25 29 32 31 31 34 37 33
4 6 8 9 10 12 16 17 19 22 23 24 21 24 26 31 35 38 34 35 30 31 29 24 19 26 25 25 23 20 16 8 7 4 17 24 24 24 26 28 29 30 31
2 5 7 8 9 10 10 16 17 21 24 22 22 21 23 25 28 28 33 32 29 25 21 23 32 27 35 30 29 26 25 21 17 13 7 5 3 17 22 26 27 26 25
0 3 5 6 7 9 9 8 13 16 21 23 25 26 24 27 28 28 27 30 26 20 27 28 24 26 25 27 25 22 27 24 23 18 16 13 10 9 7 13 26 25 25
1 2 3 4 6 7 8 9 10 10 13 19 23 24 25 26 29 28 24 22 28 29 27 24 23 23 22 26 21 21 22 28 24 22 20 18 16 12 12 14 10 11 22
3 1 2 3 4 6 7 8 9 11 13 15 18 23 23 24 25 27 26 24 26 28 25 22 21 21 22 23 22 21 22 23 25 23 22 20 18 17 16 15 15 13 13
2 2 2 2 2 4 5 6 8 10 12 14 16 20 22 21 21 23 25 25 23 23 22 22 22 22 21 22 21 21 20 21 21 20 21 23 24 22 18 17 17 14 12
2 2 3 2 3 3 4 4 6 7 9 11 14 17 19 19 20 20 20 20 20 20 20 19 20 22 22 22 20 19 20 23 22 22 22 22 20 18 16 16 18 19 15
3 2 3 3 3 3 3 4 5 6 6 7 8 12 14 14 15 16 16 16 16 16 16 17 18 18 18 18 19 20 19 21 23 23 23 21 22 19 18 17 13 15 17
3 3 3 4 4 4 3 2 3 4 5 6 7 9 12 12 12 13 13 14 15 15 14 14 14 13 14 16 18 21 22 20 23 23 20 18 19 19 18 18 18 17 15
5 5 4 4 4 4 3 2 2 3 4 5 7 8 10 11 11 12 12 12 11 12 13 14 13 15 16 16 15 16 23 20 21 23 22 18 17 20 20 18 18 18 18
6 5 5 4 4 3 2 2 2 1 3 4 6 7 8 9 10 10 10 11 13 13 13 14 14 15 16 15 15 13 14 22 19 21 22 18 18 19 18 19 17 18 17
6 5 5 5 4 4 3 2 2 2 3 4 5 6 7 9 10 10 10 11 12 12 13 15 16 17 17 17 15 14 14 16 16 18 21 15 17 18 18 18 18 18 18
6 6 6 5 5 3 3 2 2 2 3 5 6 7 8 9 10 11 12 12 13 13 14 14 14 14 15 16 15 14 14 12 14 15 17 15 15 17 17 18 18 17 16
Wind_Direction
313 314 313 306 303 299 292 288 283 281 275 269 264 260 257 254 252 252 255 256 257 251 194 182 181 179 182 185 187 182 182 181 170 193 196 193 195 197 200 203 206 212 211
316 318 315 309 306 302 299 296 294 286 278 269 262 258 255 252 253 242 235 237 250 248 185 181 180 176 179 185 190 185 189 185 185 172 187 187 190 198 197 200 202 206 212
321 321 320 315 313 311 307 308 303 299 288 278 263 253 250 249 248 243 251 254 249 255 176 176 178 176 177 183 190 191 192 186 186 169 174 186 189 190 194 197 201 202 206
320 325 325 319 318 319 315 314 319 320 306 294 273 259 250 243 236 235 247 250 247 192 180 181 181 182 184 182 187 192 192 190 180 168 169 175 183 187 190 190 199 205 204
324 331 331 327 323 332 323 331 338 329 323 328 320 301 297 282 233 239 235 248 181 178 181 184 183 186 188 187 187 188 190 190 186 171 167 170 178 176 186 194 196 198 207
327 333 340 334 328 338 334 342 338 331 346 349 357 354 4 344 319 268 257 183 163 179 188 188 190 189 191 190 193 193 193 189 187 184 173 176 180 180 187 187 191 190 195
330 332 342 337 334 338 338 345 343 346 355 360 3 360 355 7 322 240 243 163 173 170 176 178 187 187 188 191 196 198 200 199 195 184 184 189 182 183 184 185 192 192 202
328 327 338 342 342 340 343 348 357 359 359 360 356 356 359 9 10 83 102 142 137 144 160 165 172 184 187 192 197 201 201 202 202 197 196 194 194 191 198 197 196 202 206
340 331 336 341 347 345 350 349 356 358 358 353 358 5 5 6 19 36 71 77 88 95 121 167 202 199 202 195 194 197 202 207 206 207 204 203 201 203 199 192 191 188 199
347 341 339 340 348 350 352 352 352 2 2 4 6 8 7 14 23 40 49 49 60 68 86 82 104 155 194 202 199 200 197 204 197 203 205 205 207 206 206 199 192 191 196
343 353 349 344 350 355 354 356 357 1 12 9 13 9 15 18 22 37 40 48 51 49 59 54 49 63 156 202 207 207 205 203 205 203 204 205 208 209 207 205 204 198 199
342 359 4 356 351 359 360 357 8 9 15 8 11 23 16 10 25 32 37 43 48 46 49 48 44 51 82 127 194 202 208 206 199 194 198 205 206 207 209 212 208 212 212
340 1 7 16 7 359 7 12 17 19 21 24 15 22 14 12 19 28 29 34 38 41 43 45 42 51 72 63 79 210 213 190 193 190 198 203 205 208 211 211 214 215 220
342 0 7 15 26 24 10 18 26 24 26 25 26 20 17 18 21 23 23 28 29 31 45 41 46 60 58 58 65 60 68 67 62 155 208 202 198 202 206 204 202 207 212
347 1 9 14 20 31 50 30 26 26 34 31 31 28 29 24 25 29 30 29 30 28 39 37 40 35 44 28 39 41 53 51 50 31 20 61 150 212 207 205 202 204 208
207 14 13 18 21 24 29 51 53 43 38 38 38 38 30 31 29 31 35 35 37 41 44 37 33 35 40 35 22 19 35 35 40 35 33 20 16 357 342 231 206 205 208
149 56 25 26 30 29 28 30 26 34 41 39 37 36 36 29 27 31 35 37 39 41 44 40 37 35 29 39 23 19 21 31 34 32 34 22 16 3 347 329 327 251 216
148 74 48 46 38 42 33 27 31 28 24 25 26 30 31 32 30 29 29 36 37 38 39 36 37 29 28 34 23 19 25 23 24 27 26 25 20 10 360 348 337 331 321
126 97 90 77 67 59 54 44 34 31 30 27 21 21 20 28 34 34 32 34 31 29 29 29 26 26 27 29 23 19 24 24 21 19 16 19 13 15 6 353 341 329 320
141 124 102 115 124 92 69 63 56 50 41 33 23 21 13 20 25 29 33 33 30 26 22 23 22 24 24 24 21 18 18 22 15 17 15 8 7 8 359 357 354 332 328
125 136 150 126 142 122 87 71 59 54 50 44 34 19 21 25 20 21 24 28 27 24 22 19 18 21 19 20 20 17 17 21 18 10 7 6 358 358 352 347 350 349 340
118 126 137 143 133 138 116 81 63 47 38 31 20 12 18 24 21 20 19 16 12 13 15 16 15 18 10 13 13 17 11 10 11 5 0 0 357 352 349 349 350 346 346
117 122 129 129 141 156 138 112 71 33 23 10 7 7 11 12 12 10 7 7 8 7 3 6 3 2 8 8 7 10 10 13 7 1 355 349 349 349 349 348 346 341 337
110 112 116 125 144 151 147 137 112 47 7 358 354 355 355 354 354 353 354 350 357 358 358 357 359 359 354 355 356 356 2 7 1 359 355 352 345 349 348 346 343 340 334
99 101 111 118 115 120 122 100 71 18 352 354 350 344 338 333 331 332 332 330 331 336 339 342 344 345 345 345 343 346 353 347 358 354 350 351 351 350 352 342 345 346 342
104 100 102 110 111 111 101 80 46 9 348 336 328 323 320 319 318 317 318 318 315 315 313 311 314 320 327 332 333 334 331 329 345 348 342 354 358 354 356 352 353 353 350